GLD1793 RPVE-RPVB

Flight info

Callsign GLD1793
Flight time N/A
Altitude 5000
Route KLO8A KLO TR8 GALIA GALI3P
Aircraft BE58/M-SDFGIRY/S

Departure

Time N/A
Airport Godofredo P. Ramos Airport (RPVE)

Arrival

Time 2026-05-07 20:59
Airport Bacolod-Silay International Airport (RPVB)
Time Latitude Longitude Altitude Speed Heading
2026-05-07 20:59 10.77351 123.01411 84 ft 0 kts 341°
2026-05-07 21:02 10.77348 123.01412 81 ft 2 kts 341°
2026-05-07 21:02 10.77332 123.01415 84 ft 2 kts 20°
2026-05-07 21:02 10.77328 123.01405 82 ft 0 kts 96°
2026-05-07 21:04 10.77328 123.01408 81 ft 2 kts 98°
2026-05-07 21:04 10.77318 123.01449 81 ft 9 kts 75°
2026-05-07 21:04 10.77359 123.01481 81 ft 0 kts 31°
2026-05-07 21:06 10.77363 123.01484 81 ft 4 kts 38°
2026-05-07 21:06 10.77352 123.01540 84 ft 15 kts 123°
2026-05-07 21:06 10.77298 123.01632 81 ft 14 kts 117°
2026-05-07 21:06 10.77284 123.01688 82 ft 0 kts 31°
2026-05-07 21:07 10.77439 123.01778 82 ft 70 kts 29°
2026-05-07 21:07 10.78008 123.02085 232 ft 108 kts 29°
2026-05-07 21:08 10.78763 123.02516 305 ft 134 kts 31°
2026-05-07 21:08 10.79577 123.02989 547 ft 138 kts 30°
2026-05-07 21:08 10.80453 123.03533 765 ft 155 kts 32°
2026-05-07 21:08 10.81373 123.04073 971 ft 156 kts 32°
2026-05-07 21:09 10.82332 123.04588 1203 ft 157 kts 31°
2026-05-07 21:09 10.82986 123.04929 1354 ft 162 kts 30°
2026-05-07 21:09 10.83988 123.05485 1594 ft 164 kts 31°
2026-05-07 21:09 10.84998 123.06040 1807 ft 164 kts 31°
2026-05-07 21:10 10.86006 123.06588 2028 ft 164 kts 31°
2026-05-07 21:10 10.87110 123.06924 2241 ft 174 kts
2026-05-07 21:10 10.88247 123.06403 2452 ft 192 kts 321°
2026-05-07 21:10 10.88841 123.05159 2663 ft 203 kts 278°
2026-05-07 21:11 10.88609 123.03768 2880 ft 203 kts 249°
2026-05-07 21:11 10.88089 123.02408 2998 ft 212 kts 247°
2026-05-07 21:11 10.86966 122.99528 3011 ft 222 kts 247°
2026-05-07 21:12 10.86384 122.98052 3008 ft 225 kts 247°
2026-05-07 21:12 10.85798 122.96574 3010 ft 225 kts 247°
2026-05-07 21:12 10.85215 122.95102 3010 ft 224 kts 247°
2026-05-07 21:12 10.84633 122.93631 3001 ft 224 kts 247°
2026-05-07 21:13 10.84052 122.92160 3002 ft 224 kts 247°
2026-05-07 21:13 10.83480 122.90708 3003 ft 223 kts 247°
2026-05-07 21:13 10.82899 122.89237 3003 ft 225 kts 247°
2026-05-07 21:13 10.82305 122.87752 3000 ft 224 kts 247°
2026-05-07 21:14 10.81702 122.86292 2997 ft 224 kts 247°
2026-05-07 21:14 10.81107 122.84855 2997 ft 223 kts 247°
2026-05-07 21:14 10.80500 122.83393 2993 ft 224 kts 247°
2026-05-07 21:14 10.79920 122.81928 2990 ft 223 kts 254°
2026-05-07 21:15 10.79766 122.80371 2990 ft 221 kts 276°
2026-05-07 21:15 10.79956 122.78813 2990 ft 221 kts 280°
2026-05-07 21:15 10.80146 122.77268 2992 ft 220 kts 280°
2026-05-07 21:15 10.80331 122.75724 2993 ft 220 kts 280°
2026-05-07 21:16 10.80519 122.74177 2996 ft 221 kts 280°
2026-05-07 21:16 10.80705 122.72645 2998 ft 221 kts 279°
2026-05-07 21:16 10.80893 122.71100 2995 ft 218 kts 279°
2026-05-07 21:16 10.81077 122.69572 2998 ft 217 kts 279°
2026-05-07 21:17 10.81264 122.68037 2993 ft 220 kts 280°
2026-05-07 21:17 10.81449 122.66513 2993 ft 221 kts 280°
2026-05-07 21:17 10.81636 122.64965 2994 ft 220 kts 279°
2026-05-07 21:17 10.81824 122.63419 2995 ft 220 kts 279°
2026-05-07 21:18 10.82011 122.61874 2992 ft 219 kts 279°
2026-05-07 21:18 10.82197 122.60334 3002 ft 219 kts 282°
2026-05-07 21:18 10.82383 122.58795 2996 ft 219 kts 282°
2026-05-07 21:18 10.82567 122.57275 2992 ft 214 kts 281°
2026-05-07 21:19 10.82747 122.55777 2991 ft 212 kts 281°
2026-05-07 21:19 10.82926 122.54295 2994 ft 211 kts 281°
2026-05-07 21:19 10.83104 122.52816 2994 ft 209 kts 281°
2026-05-07 21:19 10.83281 122.51369 2993 ft 209 kts 281°
2026-05-07 21:20 10.83460 122.49901 2997 ft 210 kts 282°
2026-05-07 21:20 10.83668 122.48429 2993 ft 208 kts 290°
2026-05-07 21:20 10.84413 122.47269 2994 ft 193 kts 328°
2026-05-07 21:20 10.85609 122.46730 3001 ft 186 kts 347°
2026-05-07 21:21 10.86878 122.46485 3004 ft 185 kts 355°
2026-05-07 21:21 10.88158 122.46318 3008 ft 186 kts 356°
2026-05-07 21:21 10.89440 122.46146 3014 ft 187 kts 356°
2026-05-07 21:21 10.90717 122.45974 3013 ft 185 kts
2026-05-07 21:22 10.91980 122.46130 3011 ft 181 kts 15°
2026-05-07 21:22 10.93209 122.46420 3016 ft 182 kts 16°
2026-05-07 21:22 10.94449 122.46724 3003 ft 183 kts 15°
2026-05-07 21:22 10.95572 122.47293 3009 ft 183 kts 41°
2026-05-07 21:23 10.96471 122.48205 3014 ft 182 kts 46°
2026-05-07 21:23 10.97352 122.49145 2920 ft 187 kts 46°
2026-05-07 21:23 10.98247 122.50104 2754 ft 191 kts 46°
2026-05-07 21:23 10.99186 122.51103 2592 ft 193 kts 45°
2026-05-07 21:24 11.00097 122.52083 2432 ft 194 kts 46°
2026-05-07 21:24 11.01033 122.53099 2266 ft 197 kts 46°
2026-05-07 21:24 11.01980 122.54121 2093 ft 199 kts 46°
2026-05-07 21:24 11.02920 122.55143 2014 ft 196 kts 46°
2026-05-07 21:25 11.03842 122.56149 2010 ft 192 kts 45°
2026-05-07 21:25 11.04733 122.57147 2003 ft 189 kts 52°
2026-05-07 21:25 11.05080 122.58413 2005 ft 192 kts 91°
2026-05-07 21:25 11.04494 122.59661 2004 ft 205 kts 129°
2026-05-07 21:26 11.03230 122.60359 1999 ft 214 kts 166°
2026-05-07 21:26 11.01753 122.60245 2006 ft 219 kts 192°
2026-05-07 21:26 11.00355 122.59608 1996 ft 218 kts 219°
2026-05-07 21:26 10.99244 122.58586 2001 ft 213 kts 225°
2026-05-07 21:27 10.98202 122.57552 1999 ft 212 kts 225°
2026-05-07 21:27 10.97153 122.56492 1995 ft 212 kts 226°
2026-05-07 21:27 10.96172 122.55496 2002 ft 208 kts 226°
2026-05-07 21:27 10.95154 122.54452 2001 ft 206 kts 226°
2026-05-07 21:28 10.94144 122.53411 1990 ft 206 kts 226°
2026-05-07 21:28 10.93136 122.52372 1993 ft 206 kts 226°
2026-05-07 21:28 10.92087 122.51375 1950 ft 207 kts 214°
2026-05-07 21:28 10.90729 122.50855 1752 ft 213 kts 186°
2026-05-07 21:29 10.89276 122.50881 1272 ft 212 kts 168°
2026-05-07 21:29 10.87816 122.51017 834 ft 212 kts 183°
2026-05-07 21:29 10.86430 122.50506 459 ft 212 kts 200°
2026-05-07 21:29 10.85100 122.50007 337 ft 194 kts 197°
2026-05-07 21:30 10.84003 122.49592 150 ft 144 kts 197°
2026-05-07 21:30 10.83170 122.49292 135 ft 111 kts 199°
2026-05-07 21:30 10.82627 122.49088 128 ft 50 kts 202°
2026-05-07 21:30 10.82493 122.49035 126 ft 6 kts 111°
2026-05-07 21:31 10.82525 122.49053 126 ft 6 kts 15°
2026-05-07 21:31 10.82572 122.49068 125 ft 8 kts 19°
2026-05-07 21:31 10.82626 122.49088 128 ft 9 kts 20°
2026-05-07 21:31 10.82693 122.49112 128 ft 11 kts 20°
2026-05-07 21:32 10.82762 122.49144 125 ft 2 kts 70°
2026-05-07 21:32 10.82764 122.49146 125 ft 6 kts 54°
2026-05-07 21:32 10.82886 122.49190 115 ft 23 kts 19°
2026-05-07 21:32 10.83038 122.49251 133 ft 22 kts 24°
2026-05-07 21:33 10.83082 122.49309 134 ft 10 kts 91°
2026-05-07 21:33 10.83057 122.49381 134 ft 12 kts 106°
2026-05-07 21:33 10.83034 122.49473 133 ft 14 kts 109°
2026-05-07 21:33 10.82986 122.49569 134 ft 14 kts 112°
2026-05-07 21:34 10.83012 122.49595 134 ft 6 kts 300°
2026-05-07 21:34 10.83013 122.49591 134 ft 0 kts 287°